Location: Sceptre
(50.8619°N, 109.2670°W)
Time: 23:32:02
(UTC+00:00)

Envisat - Pass Details

Date: 27 January 2022
Orbit: 764 x 765 km, 98.2° (Epoch: 22 May)

Event Time Altitude Azimuth Distance (km) Brightness Sun altitude
Rises 13:38:39 0° 6° (N) 3,244 6.2 -12.8°
Reaches altitude 10° 13:41:18 10° 354° (N) 2,313 5.3 -12.4°
Maximum altitude 13:45:24 25° 300° (WNW) 1,499 4.0 -11.8°
Drops below altitude 10° 13:49:30 10° 246° (WSW) 2,302 5.0 -11.1°
Sets 13:52:08 0° 234° (SW) 3,224 5.9 -10.7°
